CZ-3B DEB, 40165

Orbit data source: Space-Track

CZ-3B DEB, 40165 is space debris in HEO originally from a launch on Sat, 04 Sep 2010 UTC launched from the Xichang Space Center, China (XSC). Debris objects in space refer to the collection of defunct objects orbiting the Earth. Examples of debris include non-operational satellites, rocket bodies, and fragments generated from explosions, collisions, or faulty payload assembly.

Loading next visibility...
Identifier
40165, 2010-042S
Orbit
HEO
Country
Flag of CNCN / PRC
Related business
Manufacturer
CALT
Mission
Spacecraft
Bus & Motor
Unknown
Mass
Unknown
Launch date (UTC)
2010-09-04 (16 years ago)
Launch vehicle
Unknown
Launch site
Xichang Space Center, China (XSC)
Object type
Payload
Rocket body
Debris
Shape & HBR
Unknown shape, 0.2 m
Radar Cross Section
Medium (>0.1 m² and <1 m²)

Expand to show TLE details & history
Last TLE update: 15 hours ago

TLE from 15 hours ago
0 CZ-3B DEB
1 40165U 10042S   26072.25952390 -.00000216  00000-0 -13372-1 0  9993
2 40165  27.3496 138.2867 7390751 144.7909 290.1474  1.92974636102007
Epoch: 2026-03-13T06:13Z
TLE epoch observation values (Epoch: 2026-03-13T06:13:42.864Z)
Latitude
-2.15128°
Longitude
-130.20684°
Altitude
27,685.968 km
Speed
2.962 km/s
True Right ascension
08h 56m 28s
True Declination
-2° 08' 55"
Sunlit
Object was in daylight at epoch
Visualization orbit readout
Latitude
Unknown
Longitude
Unknown
Altitude
Unknown
Speed
Unknown
Apparent Right ascension
Unknown
Apparent Declination
Unknown
Sunlit
N/A
Visualization observer readout
Local Sidereal Time
02:01:32
Azimuth
Unknown
Elevation
Unknown
Doppler factor
Unknown
Orbital elements
Apogee altitude
41,021.812 km
Perigee altitude
733.59 km
Semi-major axis
27,255.838 km
Eccentricity
0.73908
Inclination
27.3496°
RAAN
138.2867°
Arg. of periapsis
144.7909°
True anomaly
210.50257°
Mean anomaly
290.1474°
Eccentric anomaly
250.28399°
Mean motion
0.48234 °/min
Orbital period
746.36 mins
BSTAR
-0.013372
Loading maneuver chart data...
Computing Atmospheric mass density...
Loading historical data...
Loading historical data...
Loading historical data...
Loading historical data...
Loading historical data...
Loading historical data...
Loading historical data...

Documentation

Showing up to 5 results
|